Hourly Data Report for May 31, 2021

WINNIPEG THE FORKS
MANITOBA
Current Station Operator: ECCC - MSC

49°53'18.008" N
97°07'46.007" W
230.00 m
5023262
71579
XWN

Download Data

Hourly Data (May 2021)
Hourly Data Report for May 31, 2021
TIME
LST
Temp Definition
°C
Dew Point Definition
°C
Rel Hum Definition
%
Precip. Amount Definition
mm

Wind Dir Definition
10's deg

Wind Spd Definition
km/h
Visibility Definition
km
Stn Press Definition
kPa
Hmdx Definition


Wind Chill Definition


Weather Definition


00:00 9.4 6.3 80 0.0 34 4   99.25     LegendNANA
01:00 8.8 5.5 80 0.0 35 7   99.28     LegendNANA
02:00 8.0 4.8 80 0.0 36 4   99.32     LegendNANA
03:00 7.9 4.6 80 0.0 33 4   99.32     LegendNANA
04:00 8.0 4.3 77 0.0 33 4   99.34     LegendNANA
05:00 7.9 4.0 76 0.0 33 4   99.37     LegendNANA
06:00 10.1 5.0 70 0.0 34 2   99.39     LegendNANA
07:00 10.9 4.0 63 0.0 32 3   99.44     LegendNANA
08:00 12.0 4.6 61 0.0 31 4   99.42     LegendNANA
09:00 13.4 5.7 59 0.0 27 3   99.41     LegendNANA
10:00 15.3 6.0 54 0.0 21 5   99.39     LegendNANA
11:00 16.9 5.2 46 0.0 19 3   99.34     LegendNANA
12:00 18.6 5.7 43 0.0 25 4   99.31     LegendNANA
13:00 20.1 3.6 34 0.0 22 8   99.27     LegendNANA
14:00 20.8 2.0 29 0.0 21 3   99.23     LegendNANA
15:00 22.2 -1.7 20 0.0 30 5   99.19     LegendNANA
16:00 23.6 -1.7 19 0.0 22 6   99.14     LegendNANA
17:00 23.8 -3.7 16 1.5 21 6   99.09     LegendNANA
18:00 24.0 -0.4 20 0.0   0   99.06     LegendNANA
19:00 23.4 -1.5 19 0.0 21 1   99.05     LegendNANA
20:00 20.9 -0.3 24 0.0   0   99.04     LegendNANA
21:00 18.0 0.9 32 0.0   0   99.05     LegendNANA
22:00 17.3 0.7 33 0.0   0   99.05     LegendNANA
23:00 17.5 1.3 33 0.0   0   99.02     LegendNANA

Notes on Data Quality.

Legend

  • E = Estimated
  • M = Missing
  • NA = Not Available*
  • [empty] = Indicates an unobserved value
Date modified: